Weather Roundup
Issued by NWS Springfield, MO

Home | Current Version | Previous Version | Text Only | Print | Product List | Glossary On
Versions: 1 2 3 4 5 6 7 8 9 10 11 12 13 14 15 16 17 18 19 20 21 22 23 24 25 26 27 28 29 30 31 32 33 34 35 36 37 38 39 40 41 42 43 44 45 46 47 48 49 50
000
NZUS99 KSGF 010507
HRRSGF

HOURLY WEATHER
NATIONAL WEATHER SERVICE SPRINGFIELD MO
1200 AM CDT SUN MAY 01 2016

......SGF CWA......

CITY           SKY/WX    TMP DP  RH WIND       PRES   REMARKS
SPRINGFIELD    CLEAR     57  50  77 W8        29.88R
JOPLIN         MOCLDY    53  50  89 W6        29.91R
WEST PLAINS    HVY RAIN  61  58  90 CALM      29.88R FOG
ROLLA          CLEAR     55  53  93 SW3       29.84R
OSAGE BEACH    CLEAR     55  46  71 CALM      29.86R

......SURROUNDING SGF CWA......

CITY           SKY/WX    TMP DP  RH WIND       PRES   REMARKS
CHANUTE        CLEAR     52  44  74 W5        29.91R
PARSONS        CLEAR     49  47  93 CALM      29.93R
COFFEYVILLE    CLEAR     54  47  77 W6        29.93R
EMPORIA        MOCLDY    50  45  83 W6        29.90R
GROVE OK       CLEAR     54  54 100 CALM      29.92R
ROGERS AR      CLEAR     55  53  93 CALM      29.92R
SILOAM SPRINGS CLEAR     54  46  76 CALM      29.93R
HARRISON AR    MOCLDY    60  56  86 W3        29.90R
NEAR YELLVILLE CLOUDY   N/A N/A N/A CALM      29.84R

......KANSAS AND MISSOURI......

CITY           SKY/WX    TMP DP  RH WIND       PRES   REMARKS
KANSAS CTY INT CLOUDY    54  48  80 W5        29.87R
DOWNTOWN KC    CLOUDY    60  47  61 W6        29.86R
COLUMBIA       PTCLDY    58  52  80 CALM      29.84S
SEDALIA        PTCLDY    60  52  74 CALM      29.86S
ST JOSEPH      CLOUDY    56  50  80 CALM      29.86R
ST LOUIS       LGT RAIN  62  58  86 S9        29.85S
SPIRIT OF STL  LGT RAIN  59  59 100 CALM      29.84R
KIRKSVILLE     FOG       54  52  93 NE6       29.87S VSB 1/2
WICHITA        CLEAR     45  41  86 W5        29.93R
TOPEKA         CLOUDY    54  45  71 W6        29.88R
OLATHE         CLOUDY    55  47  74 NW5       29.88R

......TENNESSEE......

CITY           SKY/WX    TMP DP  RH WIND       PRES   REMARKS
MEMPHIS        PTCLDY    69  64  84 SE5       29.86R
NASHVILLE      MOCLDY    68  64  87 CALM      29.91R

......ARKANSAS.......

CITY           SKY/WX    TMP DP  RH WIND       PRES   REMARKS
FAYETTEVILLE   CLEAR     52  52 100 CALM      29.91R
FT SMITH       CLEAR     63  53  70 NW8       29.89R
LITTLE ROCK    PTCLDY    69  65  86 S6        29.83R

......OKLAHOMA.......

CITY           SKY/WX    TMP DP  RH WIND       PRES   REMARKS
TULSA          CLEAR     56  48  74 NW8       29.92R
PONCA CITY     CLEAR     48  45  89 CALM      29.95R
MCALESTER      CLEAR     56  54  93 CALM      29.93R
OKLAHOMA CITY  CLEAR     57  43  59 N6        29.96R

......IOWA............

CITY           SKY/WX    TMP DP  RH WIND       PRES   REMARKS
DES MOINES     DRIZZLE   46  43  89 NE13      29.92R FOG
QUAD CITIES    CLOUDY    47  43  86 E14       29.90R

......ILLINOIS........

CITY           SKY/WX    TMP DP  RH WIND       PRES   REMARKS
QUINCY         FOG       55  54  96 N10       29.85R VSB 1/2
CHICAGO        CLOUDY    45  44  97 NE15      29.91F FOG




USA.gov is the U.S. government's official web portal to all federal, state and local government web resources and services.